STARLINK-1881 (47166 NORAD) Tracking and Keplerian Element Data

This shows tracking and keplerian element data for the satellite.

Feedback or suggestion? Click here.




ElementValue
Catalog47166
NameSTARLINK-1881
Epoch Orbit186
Epoch Day99.91667824
Epoch Year2021
RAAN72.0234
Inclination53.0466
Eccentricity0.0001946
Argument of Perigee60.7201
Mean Anonmoly96.9526
Mean Motion15.25770158
Decay Rate0.00017353
L11 47166U 20088AW 21099.91667824 .00017353 00000-0 68233-3 0 9990
L22 47166 53.0466 72.0234 0001946 60.7201 96.9526 15.25770158 1867

Live tracking and technical data element details for STARLINK-1881 (NORAD 47166). STARLINK-1881 can be tracked NOW for your location showing map with azimuth and elevation plus other details from your city location.

Track the satellite on the map from your city or location and see movement details for azimuth, elevation, latitude, longitude, range, height, and movement on the map or in text.







IsCatalogInMostPopularTable: catalog: 47166, numindb: 53
Update: records affected: 1



GetName: 47166 STARLINK-1881

Hit Count: updated at: Sat, 10 Apr 2021 19:31:02 GMT